Station 46078 (LLNR 1187) - ALBATROSS BANK - 104NM South of Kodiak Is., AK Image indicating link to RSS feed of recent meteorological observations for station 46078


Conditions at 46078 as of
(10:10 pm AKDT on 04/18/2024)
0610 GMT on 04/19/2024:
     

Click on the graph icon in the table below to see a time series plot of the last five days of that observation.

5-day plot - Wind Direction Wind Direction (WDIR):ESE ( 120 deg true )
5-day plot - Wind Speed Wind Speed (WSPD): 11.7 kts
5-day plot - Wind Gust Wind Gust (GST): 15.5 kts
5-day plot - Wave Height Wave Height (WVHT): 10.8 ft
5-day plot - Average Wave Period Average Period (APD): 7.9 sec
5-day plot - Mean Wave Direction Mean Wave Direction (MWD):ESE ( 105 deg true )
5-day plot - Atmospheric Pressure Atmospheric Pressure (PRES):29.77 in
5-day plot - Air Temperature Air Temperature (ATMP): 40.3 °F
5-day plot - Water Temperature Water Temperature (WTMP): 39.7 °F
5-day plot - Dew Point Dew Point (DEWP): 39.2 °F
5-day plot - Wind Chill Wind Chill (CHILL): 32.7 °F
5-day plot - Wind Speed at 10 Meters Wind Speed at 10 meters (WSPD10M): 11.7 kts
5-day plot - Wind Speed at 20 Meters Wind Speed at 20 meters (WSPD20M): 13.6 kts
5-day plot -  Wind Speed, Wind Gust and Atmospheric Pressure Combined plot of Wind Speed, Gust, and Air Pressure
Supplemental Measurements
Highest 1-minute Wind Speed
Time (AKDT)5-day plot - 1-Minute Wind Speed WSPD 5-day plot - 1-Minute Wind Direction WDIR
10:09 pm 13.6 kts-
Previous observations
TIME
(AKDT)
5-day plot - Wind Direction
WDIR
 
5-day plot - Wind Speed
WSPD
kts
5-day plot - Wind Gust
GST
kts
5-day plot - Wave Height
WVHT
ft
5-day plot - Dominant Wave Period
DPD
sec
5-day plot - Average Wave Period
APD
sec
5-day plot - Mean Wave Direction
MWD
 
5-day plot - Atmospheric Pressure
PRES
in
5-day plot - Pressure Tendency
PTDY
in
5-day plot - Air Temperature
ATMP
°F
5-day plot - Water Temperature
WTMP
°F
5-day plot - Dew Point
DEWP
°F
5-day plot - Salinity
SAL
psu
5-day plot - Visibility
VIS
nmi
5-day plot - Tide (above MLLW)
TIDE
ft
2024-04-18 10:00 pmESE 11.7 15.5----29.77+0.04 40.5 39.7 39.4---
2024-04-18 09:50 pmESE 11.7 17.5 12.1 108.2 SE29.77- 40.5 39.7 39.4---
2024-04-18 09:40 pmESE 11.7 15.5----29.76- 40.3 39.7 39.2---
2024-04-18 09:30 pmESE 13.6 17.5----29.76- 40.3 39.7 39.2---
2024-04-18 09:20 pmESE 13.6 19.4 10.2 107.8 SE29.76- 40.3 39.7 39.2---
2024-04-18 09:10 pmESE 11.7 15.5 10.2-7.8 SE29.76- 40.1 39.7 39.0---
2024-04-18 09:00 pmESE 11.7 17.5----29.75+0.04 40.1 39.7 39.0---
2024-04-18 08:50 pmESE 11.7 13.6 10.8 107.9ESE29.75- 40.1 39.7 39.0---
2024-04-18 08:40 pmESE 9.7 15.5 10.8-7.9ESE29.75- 40.1 39.7 39.0---
2024-04-18 08:30 pmESE 9.7 13.6----29.75- 40.1 39.7 39.0---
2024-04-18 08:20 pmESE 9.7 15.5 10.5 117.7ESE29.74- 40.1 39.7 39.0---
2024-04-18 08:10 pmESE 9.7 13.6 10.5-7.7ESE29.74- 40.1 39.7 39.0---
2024-04-18 08:00 pmESE 9.7 13.6----29.74+0.03 40.1 39.7 39.0---
2024-04-18 07:50 pmESE 9.7 15.5 9.8 117.6 SE29.73- 39.9 39.7 38.8---
2024-04-18 07:40 pmESE 9.7 13.6----29.73- 39.9 39.7 38.8---
2024-04-18 07:30 pmESE 9.7 11.7----29.73- 39.9 39.7 38.7---
2024-04-18 07:20 pmESE 7.8 11.7 11.2 117.9ESE29.73- 39.9 39.7 38.7---
2024-04-18 07:10 pmESE 7.8 11.7 11.2-7.9ESE29.72- 39.7 39.7 38.3---
2024-04-18 07:00 pmESE 7.8 11.7----29.72+0.01 39.6 39.7 38.3---
2024-04-18 06:50 pmESE 9.7 13.6 10.2 117.9 SE29.72- 39.7 39.7 38.5---
2024-04-18 06:40 pmESE 7.8 11.7 10.2-7.9 SE29.72- 39.6 39.7 37.9---
2024-04-18 06:30 pmESE 7.8 9.7----29.71- 39.6 39.7 37.9---
2024-04-18 06:20 pmESE 5.8 9.7 10.5 107.8 SE29.71- 39.6 39.7 37.9---
2024-04-18 06:10 pmESE 5.8 9.7 10.5-7.8 SE29.71- 39.4 39.7 37.8---
2024-04-18 06:00 pm SE 5.8 9.7----29.71+0.00 39.4 39.7 37.8---
2024-04-18 05:50 pmSSE 5.8 7.8 10.8 108.0 SE29.71- 39.4- 37.8---
2024-04-18 05:40 pmSSE 5.8 9.7 10.8-8.0 SE29.71- 39.4 39.7 37.8---
2024-04-18 05:30 pm S 7.8 11.7----29.71- 39.2 39.7 37.8---
2024-04-18 05:20 pmSSE 9.7 11.7 11.2 118.1ESE29.71- 39.6 39.7 38.7---
2024-04-18 05:10 pmSSE 7.8 13.6 11.2-8.1ESE29.72- 39.6 39.7 38.8---
2024-04-18 05:00 pm SE 7.8 11.7----29.71+0.00 39.7 39.7 39.2---
2024-04-18 04:50 pmSSE 7.8 9.7 10.2 97.6ESE29.72- 39.7 39.7 39.4---
2024-04-18 04:40 pm SE 7.8 9.7----29.71- 39.7 39.7 39.6---
2024-04-18 04:30 pm SE 7.8 11.7----29.71- 40.1 39.7 39.9---
2024-04-18 04:20 pm SE 5.8 9.7 10.2 107.8ESE29.72- 40.1 39.7 39.9---
2024-04-18 04:10 pmESE 5.8 9.7 10.2-7.8ESE29.72- 40.1 39.7 39.9---
2024-04-18 04:00 pmESE 5.8 9.7----29.71+0.00 40.1 39.7 39.9---
2024-04-18 03:50 pmESE 5.8 9.7 11.8 108.3 SE29.71- 40.1 39.7 39.9---
2024-04-18 03:40 pmESE 5.8 9.7----29.72- 40.1 39.7 39.9---
2024-04-18 03:10 pm E 3.9 7.8 9.5-7.7 SE29.70- 40.3 39.7 40.1---
2024-04-18 03:00 pmESE 3.9 7.8----29.70-0.01 40.3 39.6 40.1---
2024-04-18 02:50 pmESE 3.9 7.8 10.2 117.7ESE29.70- 40.3 39.6 40.1---
2024-04-18 02:40 pmESE 3.9 7.8----29.70- 40.3 39.6 40.1---
2024-04-18 02:30 pmESE 5.8 9.7----29.70- 40.3 39.6 40.1---
2024-04-18 02:20 pmESE 5.8 9.7 9.8 117.9 SE29.70- 40.3 39.6 40.1---
2024-04-18 02:10 pm E 5.8 9.7 9.8-7.9 SE29.70- 40.3 39.6 40.1---
2024-04-18 02:00 pmESE 5.8 9.7----29.70-0.01 40.3 39.6 40.1---
2024-04-18 01:50 pmESE 5.8 9.7 9.8 117.8ESE29.71- 40.1 39.6 39.9---
2024-04-18 01:40 pmESE 5.8 9.7 9.8-7.8ESE29.71- 40.1 39.6 39.9---
2024-04-18 01:30 pmESE 5.8 9.7----29.71- 40.1 39.6 39.9---
2024-04-18 01:20 pmESE 5.8 9.7 10.8 118.1 SE29.71- 40.1 39.6 39.9---
2024-04-18 01:10 pmESE 5.8 9.7 10.8-8.1 SE29.71- 40.1 39.6 39.9---
2024-04-18 01:00 pmESE 5.8 9.7----29.71+0.00 40.1 39.6 39.9---
2024-04-18 12:50 pm E 5.8 11.7 9.8 117.6 SE29.71- 40.1 39.6 39.9---
2024-04-18 12:40 pmESE 5.8 9.7----29.71- 40.1 39.6 39.9---
2024-04-18 12:30 pmESE 5.8 9.7----29.72- 40.1 39.6 39.9---
2024-04-18 12:20 pmESE 5.8 9.7 11.2 118.0 SE29.72- 40.1 39.6 39.9---
2024-04-18 12:10 pmESE 5.8 9.7 11.2-8.0 SE29.71- 40.1- 39.9---
2024-04-18 12:00 pmESE 5.8 9.7----29.71+0.00 40.1 39.6 39.9---
2024-04-18 11:50 amESE 5.8 9.7 11.5 107.9ESE29.72- 40.1 39.6 39.9---
2024-04-18 11:40 am E 5.8 9.7 11.5-7.9ESE29.71- 40.1 39.6 39.9---
2024-04-18 11:30 am E 5.8 9.7----29.72- 40.1 39.6 40.1---
2024-04-18 11:20 amESE 5.8 9.7 11.2 107.9 SE29.71- 40.1 39.6 40.1---
2024-04-18 11:10 amESE 5.8 9.7 11.2-7.9 SE29.72- 40.1 39.6 39.9---
2024-04-18 11:00 am E 7.8 11.7----29.72+0.00 40.1 39.6 39.9---
2024-04-18 10:50 am E 5.8 11.7 11.2 117.7ESE29.72- 40.1 39.6 39.9---
2024-04-18 10:40 am E 7.8 9.7----29.72- 40.1 39.6 39.9---
2024-04-18 10:30 amESE 5.8 9.7----29.71- 40.1 39.6 40.1---
2024-04-18 10:20 amESE 5.8 9.7 11.2 118.0ESE29.72- 40.1 39.6 39.9---
2024-04-18 10:10 amESE 7.8 11.7 11.2-8.0ESE29.72- 40.1 39.6 39.9---
2024-04-18 10:00 amESE 5.8 9.7----29.71+0.00 40.1 39.6 39.9---
2024-04-18 09:50 amESE 5.8 9.7 12.1 107.9 SE29.71- 40.1 39.6 40.1---
2024-04-18 09:40 amESE 5.8 9.7----29.72- 40.1 39.6 40.1---
2024-04-18 09:30 amESE 5.8 9.7----29.72- 40.1 39.6 40.1---
2024-04-18 09:20 amESE 5.8 9.7 10.8 117.7ESE29.72- 40.1 39.6 40.1---
2024-04-18 09:10 am SE 7.8 11.7 10.8-7.7ESE29.72- 40.1 39.6 40.1---
2024-04-18 09:00 amESE 5.8 9.7----29.72+0.00 40.1 39.6 40.1---
2024-04-18 08:50 am SE 5.8 9.7 11.2 117.7 SE29.71- 40.1 39.6 40.1---
2024-04-18 08:40 amESE 7.8 11.7 11.2-7.7 SE29.72- 40.1 39.6 40.1---
2024-04-18 08:30 amESE 7.8 11.7----29.72- 40.1 39.6 40.1---
2024-04-18 08:20 amESE 9.7 13.6 11.5 107.6 SE29.72- 40.1 39.6 40.1---
2024-04-18 08:10 amESE 9.7 13.6 11.5-7.6 SE29.72- 40.1 39.6 40.1---
2024-04-18 08:00 amESE 9.7 13.6----29.72+0.01 40.1 39.6 40.1---
2024-04-18 07:50 amESE 9.7 13.6 12.1 117.9 SE29.71- 40.3 39.6 40.3---
2024-04-18 07:40 amESE 9.7 15.5----29.72- 40.3 39.6 40.3---
2024-04-18 07:30 amESE 11.7 15.5----29.72- 40.3 39.6 40.3---
2024-04-18 07:20 amESE 11.7 15.5 12.1 117.9 SE29.72- 40.3 39.6 40.3---
2024-04-18 07:10 am E 9.7 15.5 12.1-7.9 SE29.72- 40.3 39.6 40.3---
2024-04-18 07:00 am E 11.7 15.5----29.71+0.01 40.3 39.6 40.3---
2024-04-18 06:50 amESE 11.7 15.5 10.8 117.5 SE29.72- 40.3 39.6 40.3---
2024-04-18 06:40 amESE 9.7 13.6----29.71- 40.3 39.6 40.3---
2024-04-18 06:30 amESE 9.7 15.5----29.71- 40.3 39.6 40.3---
2024-04-18 06:20 amESE 11.7 15.5 10.5 107.3SSE29.71- 40.3 39.6 40.3---
2024-04-18 06:10 amESE 11.7 15.5 10.5-7.3SSE29.71- 40.3 39.6 40.3---
2024-04-18 06:00 amESE 11.7 15.5----29.71+0.02 40.3 39.6 40.3---
2024-04-18 05:50 amESE 11.7 15.5 11.5 107.7 SE29.71- 40.3 39.6 40.3---
2024-04-18 05:40 amESE 11.7 15.5----29.71- 40.3 39.6 40.1---
2024-04-18 05:30 amESE 11.7 17.5----29.71- 40.3 39.6 40.1---
2024-04-18 05:20 amESE 11.7 17.5 13.8 118.1 SE29.70- 40.5 39.6 40.3---
2024-04-18 05:10 amESE 11.7 17.5 13.8-8.1 SE29.70- 40.5 39.6 40.3---
2024-04-18 05:00 amESE 11.7 17.5----29.71+0.04 40.5 39.6 40.3---
2024-04-18 04:50 amESE 13.6 17.5 12.1 117.8ESE29.71- 40.5 39.6 40.3---
2024-04-18 04:40 amESE 13.6 17.5 12.1-7.8ESE29.70- 40.5 39.6 40.3---
2024-04-18 04:30 amESE 13.6 19.4----29.70- 40.5 39.6 40.3---
2024-04-18 04:20 amESE 13.6 17.5 11.2 117.5ESE29.70- 40.6 39.6 40.5---
2024-04-18 04:10 amESE 13.6 19.4 11.2-7.5ESE29.70- 40.6 39.6 40.5---
2024-04-18 04:00 amESE 13.6 17.5----29.70+0.05 40.6 39.6 40.5---
2024-04-18 03:50 amESE 13.6 19.4 11.8 117.7ESE29.69- 40.6 39.6 40.5---
2024-04-18 03:40 amESE 13.6 17.5----29.70- 40.6 39.6 40.5---
2024-04-18 03:30 amESE 13.6 19.4----29.70- 40.6 39.6 40.5---
2024-04-18 03:20 amESE 13.6 19.4 11.8 117.7 SE29.69- 40.6 39.6 40.5---
2024-04-18 03:10 amESE 13.6 19.4 11.8-7.7 SE29.69- 40.6 39.6 40.5---
2024-04-18 03:00 amESE 15.5 19.4----29.69+0.04 40.6 39.6 40.5---
2024-04-18 02:50 amESE 15.5 19.4 12.8 118.0ESE29.68- 40.6 39.6 40.5---
2024-04-18 02:40 amESE 15.5 21.4----29.68- 40.6 39.6 40.5---
2024-04-18 02:30 amESE 15.5 21.4----29.68- 40.6 39.7 40.5---
2024-04-18 02:20 amESE 15.5 21.4 10.5 117.4 SE29.68- 40.6 39.7 40.5---
2024-04-18 02:10 amESE 15.5 21.4 10.5-7.4 SE29.67- 40.6 39.7 40.5---
2024-04-18 02:00 amESE 15.5 21.4----29.67+0.04 40.6 39.7 40.5---
2024-04-18 01:50 amESE 15.5 19.4 12.5 117.9ESE29.66- 40.6 39.7 40.5---
2024-04-18 01:40 amESE 15.5 21.4----29.67- 40.6 39.7 40.5---
2024-04-18 01:30 amESE 15.5 21.4----29.66- 40.6 39.7 40.5---
2024-04-18 01:20 amESE 15.5 21.4 12.1 117.9ESE29.66- 40.6 39.7 40.5---
2024-04-18 01:10 amESE 15.5 21.4 12.1-7.9ESE29.65- 40.6 39.7 40.5---
2024-04-18 01:00 amESE 15.5 21.4----29.65+0.03 40.6 39.7 40.5---
2024-04-18 12:50 amESE 15.5 21.4 12.1 128.1ESE29.65- 40.6 39.7 40.5---
2024-04-18 12:40 amESE 15.5 21.4 12.1-8.1ESE29.65- 40.6 39.7 40.5---
2024-04-18 12:30 amESE 15.5 19.4----29.64- 40.6- 40.5---
2024-04-18 12:20 amESE 15.5 21.4 12.5 127.8ESE29.65- 40.6 39.7 40.5---
2024-04-18 12:10 amESE 15.5 21.4 12.5-7.8ESE29.64- 40.5 39.7 40.3---
2024-04-18 12:00 amESE 17.5 21.4----29.64+0.03 40.5 39.7 40.3---
2024-04-17 11:50 pmESE 15.5 21.4 12.8 127.9ESE29.64- 40.5 39.7 40.3---
2024-04-17 11:40 pmESE 15.5 21.4----29.64- 40.5 39.7 40.3---
2024-04-17 11:30 pmESE 15.5 19.4----29.64- 40.5 39.7 40.3---
2024-04-17 11:20 pmESE 17.5 23.3 13.5 118.0ESE29.64- 40.5 39.7 40.3---
2024-04-17 11:10 pmESE 17.5 23.3 13.5-8.0ESE29.63- 40.5 39.7 40.3---
2024-04-17 11:00 pmESE 15.5 21.4----29.63+0.03 40.6 39.7 40.5---
2024-04-17 10:50 pmESE 15.5 19.4 13.5 128.1ESE29.63- 40.6 39.7 40.5---
2024-04-17 10:40 pmESE 17.5 25.3----29.63- 40.6 39.7 40.5---
2024-04-17 10:30 pmESE 15.5 21.4----29.63- 40.6 39.7 40.5---
2024-04-17 10:20 pmESE 15.5 21.4 15.1 128.5ESE29.63- 40.6 39.7 40.5---
2024-04-17 10:10 pmESE 15.5 21.4 15.1-8.5ESE29.62- 40.6 39.7 40.5---
2024-04-17 10:00 pmESE 15.5 23.3----29.62+0.04 40.6 39.7 40.5---
2024-04-17 09:50 pmESE 15.5 21.4 14.4 118.3ESE29.62- 40.6 39.7 40.5---

Detailed Wave Summary
for 46078 as of
(10:10 pm AKDT on 04/18/2024)
0610 GMT on 04/19/2024:

These wave data are displayed in rounded times.

     

Click on the graph icon in the table below to see a time series plot of the last five days of that observation.

5-day plot - Significant Wave Height Significant Wave Height (WVHT): 10.8 ft
5-day plot - Wave Steepness Wave Steepness (STEEPNESS): AVERAGE
5-day plot - Average Wave Period Average Wave Period (APD): 7.9 sec
Previous observations
TIME
(AKDT)
5-day plot - Wave Height
WVHT
ft
5-day plot - Swell Height
SwH
ft
5-day plot - Swell Period
SwP
sec
5-day plot - Swell Direction
SwD
 
5-day plot - Wind Wave Height
WWH
ft
5-day plot - Wind Wave Period
WWP
sec
5-day plot - Wind Wave Direction
WWD
 
5-day plot - Wave Steepness
STEEPNESS
 
5-day plot - Average Wave Period
APD
sec
2024-04-18 09:40 pm 12.1------ AVERAGE 8.2
2024-04-18 09:10 pm 10.2------ AVERAGE 7.8
2024-04-18 08:40 pm 10.8------ AVERAGE 7.9
2024-04-18 08:10 pm 10.5------ AVERAGE 7.7
2024-04-18 07:40 pm 9.8------ AVERAGE 7.6
2024-04-18 07:10 pm 11.2------ AVERAGE 7.9
2024-04-18 06:40 pm 10.2------ AVERAGE 7.9
2024-04-18 06:10 pm 10.5------ AVERAGE 7.8
2024-04-18 05:40 pm 10.8------ AVERAGE 8.0
2024-04-18 05:10 pm 11.2------ AVERAGE 8.1
2024-04-18 04:40 pm 10.2------ STEEP 7.6
2024-04-18 04:10 pm 10.2------ AVERAGE 7.8
2024-04-18 03:40 pm 11.8------ AVERAGE 8.3
2024-04-18 03:10 pm 9.5------ AVERAGE 7.7
2024-04-18 02:40 pm 10.2------ AVERAGE 7.7
2024-04-18 02:10 pm 9.8------ AVERAGE 7.9
2024-04-18 01:40 pm 9.8------ AVERAGE 7.8
2024-04-18 01:10 pm 10.8------ AVERAGE 8.1
2024-04-18 12:40 pm 9.8------ AVERAGE 7.6
2024-04-18 12:10 pm 11.2------ AVERAGE 8.0
2024-04-18 11:40 am 11.5------ AVERAGE 7.9
2024-04-18 11:10 am 11.2------ AVERAGE 7.9
2024-04-18 10:40 am 11.2------ AVERAGE 7.7
2024-04-18 10:10 am 11.2------ AVERAGE 8.0
2024-04-18 09:40 am 12.1------ AVERAGE 7.9
2024-04-18 09:10 am 10.8------ AVERAGE 7.7
2024-04-18 08:40 am 11.2------ AVERAGE 7.7
2024-04-18 08:10 am 11.5------ AVERAGE 7.6
2024-04-18 07:40 am 12.1------ AVERAGE 7.9
2024-04-18 07:10 am 12.1------ AVERAGE 7.9
2024-04-18 06:40 am 10.8------ AVERAGE 7.5
2024-04-18 06:10 am 10.5------ AVERAGE 7.3
2024-04-18 05:40 am 11.5------ AVERAGE 7.7
2024-04-18 05:10 am 13.8------ AVERAGE 8.1
2024-04-18 04:40 am 12.1------ AVERAGE 7.8
2024-04-18 04:10 am 11.2------ AVERAGE 7.5
2024-04-18 03:40 am 11.8------ AVERAGE 7.7
2024-04-18 03:10 am 11.8------ AVERAGE 7.7
2024-04-18 02:40 am 12.8------ AVERAGE 8.0
2024-04-18 02:10 am 10.5------ AVERAGE 7.4
2024-04-18 01:40 am 12.5------ AVERAGE 7.9
2024-04-18 01:10 am 12.1------ AVERAGE 7.9
2024-04-18 12:40 am 12.1------ N/A 8.1
2024-04-18 12:10 am 12.5------ AVERAGE 7.8
2024-04-17 11:40 pm 12.8------ AVERAGE 7.9
2024-04-17 11:10 pm 13.5------ AVERAGE 8.0
2024-04-17 10:40 pm 13.5------ AVERAGE 8.1
2024-04-17 10:10 pm 15.1------ AVERAGE 8.5

Plot of wave energy versus frequency (and period)